This is the latest recevied weather packets stored in our database for station/object DG6YGE-6. If no packets are shown the sender has not sent any weather packets the latest 10 day(s).
| Time | Temp. | Humidity | Pressure | Rain* | Wind** | Luminosity | Snow |
|---|---|---|---|---|---|---|---|
| 1777679350 | 10° C | 78% | 1021.1 hPa | 0 mm | - | 0 W/m² | - |
| 1777678750 | 10.56° C | 76% | 1021 hPa | 0 mm | - | 0 W/m² | - |
| 1777678150 | 10.56° C | 76% | 1021.2 hPa | 0 mm | - | 0 W/m² | - |
| 1777677551 | 11.11° C | 75% | 1021.1 hPa | 0 mm | - | 0 W/m² | - |
| 1777676951 | 11.11° C | 74% | 1021.3 hPa | 0 mm | - | 0 W/m² | - |
| 1777676351 | 11.67° C | 73% | 1021.3 hPa | 0 mm | - | 0 W/m² | - |
| 1777675751 | 12.22° C | 72% | 1021.5 hPa | 0 mm | - | 0 W/m² | - |
| 1777675150 | 12.78° C | 71% | 1021.5 hPa | 0 mm | - | 0 W/m² | - |
| 1777674551 | 13.33° C | 69% | 1021.5 hPa | 0 mm | - | 0 W/m² | - |
| 1777673951 | 13.33° C | 68% | 1021.5 hPa | 0 mm | - | 0 W/m² | - |
| 1777673351 | 13.89° C | 68% | 1021.5 hPa | 0 mm | - | 0 W/m² | - |
| 1777672750 | 13.89° C | 67% | 1021.5 hPa | 0 mm | - | 0 W/m² | - |
| 1777672151 | 14.44° C | 67% | 1021.4 hPa | 0 mm | - | 0 W/m² | - |
| 1777671550 | 14.44° C | 67% | 1021.4 hPa | 0 mm | - | 0 W/m² | - |
| 1777670950 | 15° C | 65% | 1021.3 hPa | 0 mm | - | 0 W/m² | - |
| 1777670350 | 15° C | 64% | 1021.5 hPa | 0 mm | - | 0 W/m² | - |
| 1777669750 | 15° C | 64% | 1021.4 hPa | 0 mm | - | 0 W/m² | - |
| 1777669151 | 15.56° C | 64% | 1021.5 hPa | 0 mm | - | 0 W/m² | - |
| 1777668550 | 15.56° C | 63% | 1021.4 hPa | 0 mm | - | 0 W/m² | - |
| 1777667950 | 15.56° C | 63% | 1021.6 hPa | 0 mm | - | 0 W/m² | - |
| 1777667350 | 16.11° C | 62% | 1021.6 hPa | 0 mm | - | 0 W/m² | - |
| 1777666750 | 16.67° C | 61% | 1021.7 hPa | 0 mm | - | 0 W/m² | - |
| 1777666150 | 16.67° C | 61% | 1021.7 hPa | 0 mm | - | 0 W/m² | - |
| 1777665551 | 17.22° C | 59% | 1021.8 hPa | 0 mm | - | 0 W/m² | - |
| 1777664950 | 17.22° C | 58% | 1021.7 hPa | 0 mm | - | 0 W/m² | - |
* Rain latest hour (hover to see other rain measurements)
** Current wind speed in m/s (hover to see current wind gust speed)